Simultaneous Nadir Overpasses (SNOs) Predictions

Prediction of SNOs between GOES-16 and METOP-B Satellite Orbit:

Table of predicted SNOs for the next 14.0 days since TLE Epoch: 2/17/2024
Index Date Time (GOES-16) GOES-16 Lat,Lon METOP-B Lat,Lon Distance(km) Time Diff (sec)
1 02/18/2024 02:11:21 -0.03, -75.20 0.72, -71.91 374.85 80
2 02/19/2024 14:32:54 0.03, -75.23 0.31, -76.49 143.69 80
3 02/20/2024 14:09:36 0.03, -75.24 -0.78, -71.50 425.06 80
4 02/22/2024 02:31:18 -0.04, -75.23 -0.23, -76.12 101.03 80
5 02/23/2024 02:07:59 -0.04, -75.24 0.87, -71.13 468.22 80
6 02/24/2024 14:29:33 0.04, -75.28 0.15, -75.71 48.83 80
7 02/27/2024 02:27:56 -0.04, -75.31 -0.05, -75.34 3.40 80
8 02/29/2024 14:23:31 0.04, -75.38 -0.05, -74.93 50.62 80
9 03/02/2024 02:45:13 -0.04, -75.39 -0.99, -79.54 473.17 80
